Regional Weather Roundup
Issued by NWS

Home | Current Version | Previous Version | Graphics & Text | Print | Product List | Glossary On
Versions: 1 2 3 4 5 6 7 8 9 10 11 12 13 14 15 16 17 18 19 20 21 22 23 24 25 26 27 28 29 30 31 32 33 34 35 36 37 38 39 40 41 42 43 44 45 46 47 48 49 50
000
ASUS45 KSLC 020110
RWRUT

UTAH REGIONAL WEATHER ROUNDUP
NATIONAL WEATHER SERVICE SALT LAKE CITY UT
600 PM MST SUN MAR 01 2015

UTZ001>011-023>025-020200-

NORTHERN UTAH

CITY           SKY/WX    TMP DP  RH WIND       PRES   REMARKS
BRIGHAM CITY   MOCLDY    44  21  40 SW3       30.01S
HILL AFB       CLOUDY    41  26  54 E10       30.00S
LOGAN          MOCLDY    43  22  43 SW5       30.01R
OGDEN          CLOUDY    44  24  45 NW5       30.00S
PROVO AIRPORT  MOCLDY    41  28  60 CALM      30.02S
SALT LAKE CITY CLOUDY    43  29  57 W7        30.00F
VERNAL         MOCLDY    40  23  50 CALM      30.05S
WENDOVER       PTCLDY    43  18  36 CALM      30.00F
HEBER CITY     CLOUDY    37  28  70 W5        29.99S WCI  34
WEST JORDAN    CLEAR     41  30  65 NW5       30.00F

$$

UTZ012>022-026-027-020200-

SOUTHERN/CENTRAL UTAH

CITY           SKY/WX    TMP DP  RH WIND       PRES   REMARKS
BLANDING       CLOUDY    34  34  99 CALM      30.12S
BRYCE CANYON   SNOW      28  26  92 SE7       30.00F VSB 1/2 WCI  21
CEDAR CITY     CLOUDY    33  32  96 CALM      29.98F
DELTA          CLOUDY    43  29  57 CALM      30.00F
HANKSVILLE     CLOUDY    41  34  75 CALM      30.08S
MILFORD        CLOUDY    38  32  79 NE7       29.98F WCI  33
MOAB/CYNLANDS  CLOUDY    40  35  83 SE9       30.04S WCI  34
PRICE          LGT SNOW  35  30  82 SE6       30.04S WCI  30
ST GEORGE      CLOUDY    45  37  76 CALM      30.02S
KANAB            N/A     36  36 100 N6        30.04F WCI  31

$$

REGIONAL REPORTS     COLORADO/ARIZONA

CITY           SKY/WX    TMP DP  RH WIND       PRES   REMARKS
CRAIG, CO      MOCLDY    32  24  72 E6        30.06F WCI  26
GRAND JUNCTION CLOUDY    43  30  60 SE3       30.05R
RIFLE          CLOUDY    43  26  51 SE6       30.04S
MONTROSE       FLURRIES  33  32  96 CALM      30.09S
CORTEZ         MOCLDY    39  35  86 NE3       30.04F
PAGE, AZ       LGT RAIN  37  33  85 SW5       30.04S WCI  33
GRAND CANYON   LGT SNOW  33  32  96 SE3       29.99R FOG
KINGMAN        LGT RAIN  43  39  86 N9        29.93F
FLAGSTAFF      LGT RAIN  39  36  89 S13G28    29.99R FOG     WCI  31

$$

REGIONAL REPORTS    NEVADA/IDAHO/WYOMING

CITY           SKY/WX    TMP DP  RH WIND       PRES   REMARKS
LAS VEGAS, NV  LGT RAIN  50  42  74 E8        29.92F
ELY            PTCLDY    35  28  75 N7        29.96R WCI  29
ELKO           CLOUDY    44  20  38 NE10      29.94F
POCATELLO, ID  PTCLDY    38   8  29 W7        30.02F WCI  33
BURLEY         CLEAR     41   3  20 E6        30.00F
EVANSTON, WY   MOCLDY    27  19  72 E7        30.01R WCI  19
ROCK SPRINGS   PTCLDY    28  17  63 SE5       30.03F WCI  23
KEMMERER       PTCLDY    28  14  54 SE3       30.02S

$$



USA.gov is the U.S. government's official web portal to all federal, state and local government web resources and services.